Time,TemperatureF,DewpointF,PressureIn,WindDirection,WindDirectionDegrees,WindSpeedMPH,WindSpeedGustMPH,Humidity,HourlyPrecipIn,Conditions,Clouds,dailyrainin,SolarRadiationWatts/m^2,SoftwareType,DateUTC
2014-01-16 00:01:00,26.1,21.9,29.47,SSW,196,0.0,6.0,84,0.00,,,0.00,0.0,WUHU216DAVISVP2,2014-01-16 06:01:00,
2014-01-16 00:06:00,26.3,22.1,29.47,SW,215,0.0,6.0,84,0.00,,,0.00,0.0,WUHU216DAVISVP2,2014-01-16 06:06:00,
2014-01-16 00:11:00,26.4,22.5,29.47,SSW,198,1.0,6.0,85,0.00,,,0.00,0.0,WUHU216DAVISVP2,2014-01-16 06:11:00,
2014-01-16 00:16:00,26.6,22.7,29.46,SSW,212,0.0,6.0,85,0.00,,,0.00,0.0,WUHU216DAVISVP2,2014-01-16 06:16:00,
2014-01-16 00:21:00,26.7,22.8,29.46,WSW,240,1.0,4.0,85,0.00,,,0.00,0.0,WUHU216DAVISVP2,2014-01-16 06:21:00,
2014-01-16 00:26:00,27.0,23.4,29.46,NNE,29,1.0,3.0,86,0.00,,,0.00,0.0,WUHU216DAVISVP2,2014-01-16 06:26:00,
2014-01-16 00:31:00,27.3,23.6,29.46,WNW,282,0.0,4.0,86,0.00,,,0.00,0.0,WUHU216DAVISVP2,2014-01-16 06:31:00,
2014-01-16 00:36:00,27.6,24.2,29.46,West,268,1.0,4.0,87,0.00,,,0.00,0.0,WUHU216DAVISVP2,2014-01-16 06:36:00,
2014-01-16 00:41:00,27.8,24.4,29.46,WSW,248,0.0,4.0,87,0.00,,,0.00,0.0,WUHU216DAVISVP2,2014-01-16 06:41:00,
2014-01-16 00:46:00,28.1,24.7,29.45,WNW,286,0.0,4.0,87,0.00,,,0.00,0.0,WUHU216DAVISVP2,2014-01-16 06:46:00,
2014-01-16 00:51:00,28.3,24.9,29.46,South,175,1.0,4.0,87,0.00,,,0.00,0.0,WUHU216DAVISVP2,2014-01-16 06:51:00,
2014-01-16 00:56:00,28.6,25.5,29.45,WNW,289,3.0,5.0,88,0.00,,,0.00,0.0,WUHU216DAVISVP2,2014-01-16 06:56:00,
2014-01-16 01:01:00,29.0,25.9,29.45,WNW,283,0.0,5.0,88,0.00,,,0.00,0.0,WUHU216DAVISVP2,2014-01-16 07:01:00,
2014-01-16 01:06:00,29.4,26.3,29.45,WSW,249,1.0,5.0,88,0.00,,,0.00,0.0,WUHU216DAVISVP2,2014-01-16 07:06:00,
2014-01-16 01:11:00,29.8,26.7,29.44,ENE,60,1.0,5.0,88,0.00,,,0.00,0.0,WUHU216DAVISVP2,2014-01-16 07:11:00,
2014-01-16 01:16:00,30.2,27.1,29.44,SW,225,3.0,5.0,88,0.00,,,0.00,0.0,WUHU216DAVISVP2,2014-01-16 07:16:00,
2014-01-16 01:21:00,30.6,27.5,29.44,WNW,288,3.0,5.0,88,0.01,,,0.01,0.0,WUHU216DAVISVP2,2014-01-16 07:21:00,
2014-01-16 01:26:00,30.9,27.8,29.44,West,274,1.0,5.0,88,0.01,,,0.01,0.0,WUHU216DAVISVP2,2014-01-16 07:26:00,
2014-01-16 01:31:00,31.2,28.1,29.44,WSW,246,2.0,5.0,88,0.01,,,0.01,0.0,WUHU216DAVISVP2,2014-01-16 07:31:00,
2014-01-16 01:36:00,31.4,28.0,29.44,West,271,1.0,5.0,87,0.01,,,0.01,0.0,WUHU216DAVISVP2,2014-01-16 07:36:00,
2014-01-16 01:41:00,31.6,28.2,29.44,NW,306,0.0,5.0,87,0.01,,,0.01,0.0,WUHU216DAVISVP2,2014-01-16 07:41:00,
2014-01-16 01:46:00,31.8,28.1,29.44,SSW,207,1.0,4.0,86,0.01,,,0.01,0.0,WUHU216DAVISVP2,2014-01-16 07:46:00,
2014-01-16 01:51:00,31.9,28.2,29.44,SSW,199,1.0,6.0,86,0.01,,,0.01,0.0,WUHU216DAVISVP2,2014-01-16 07:51:00,
2014-01-16 01:56:00,32.1,28.4,29.43,WSW,258,2.0,6.0,86,0.01,,,0.01,0.0,WUHU216DAVISVP2,2014-01-16 07:56:00,
2014-01-16 02:01:00,32.3,28.6,29.44,SW,225,1.0,6.0,86,0.01,,,0.01,0.0,WUHU216DAVISVP2,2014-01-16 08:01:00,
2014-01-16 02:06:00,32.4,28.6,29.44,WNW,283,0.0,6.0,86,0.01,,,0.01,0.0,WUHU216DAVISVP2,2014-01-16 08:06:00,
2014-01-16 02:11:00,32.6,28.8,29.44,WNW,287,4.0,5.0,86,0.01,,,0.01,0.0,WUHU216DAVISVP2,2014-01-16 08:11:00,
2014-01-16 02:16:00,32.7,29.2,29.44,WNW,303,3.0,5.0,87,0.01,,,0.01,0.0,WUHU216DAVISVP2,2014-01-16 08:16:00,
2014-01-16 02:21:00,32.8,29.3,29.44,West,278,2.0,6.0,87,0.00,,,0.01,0.0,WUHU216DAVISVP2,2014-01-16 08:21:00,
2014-01-16 02:26:00,32.8,29.6,29.44,NNE,28,0.0,6.0,88,0.00,,,0.01,0.0,WUHU216DAVISVP2,2014-01-16 08:26:00,
2014-01-16 02:31:00,32.7,29.5,29.44,WNW,298,1.0,6.0,88,0.00,,,0.01,0.0,WUHU216DAVISVP2,2014-01-16 08:31:00,
2014-01-16 02:36:00,32.7,29.5,29.44,NW,323,1.0,6.0,88,0.00,,,0.01,0.0,WUHU216DAVISVP2,2014-01-16 08:36:00,
2014-01-16 02:41:00,32.7,29.8,29.44,WNW,292,0.0,3.0,89,0.00,,,0.01,0.0,WUHU216DAVISVP2,2014-01-16 08:41:00,
2014-01-16 02:46:00,32.8,29.9,29.44,NW,306,0.0,3.0,89,0.00,,,0.01,0.0,WUHU216DAVISVP2,2014-01-16 08:46:00,
2014-01-16 02:51:00,32.8,30.2,29.44,WNW,297,1.0,3.0,90,0.00,,,0.01,0.0,WUHU216DAVISVP2,2014-01-16 08:51:00,
2014-01-16 02:56:00,32.8,30.2,29.44,WNW,298,1.0,3.0,90,0.01,,,0.02,0.0,WUHU216DAVISVP2,2014-01-16 08:56:00,
2014-01-16 03:01:00,32.7,30.1,29.44,WSW,253,0.0,4.0,90,0.01,,,0.02,0.0,WUHU216DAVISVP2,2014-01-16 09:01:00,
2014-01-16 03:06:00,32.7,30.4,29.43,West,277,1.0,4.0,91,0.01,,,0.02,0.0,WUHU216DAVISVP2,2014-01-16 09:06:00,
2014-01-16 03:11:00,32.6,30.3,29.43,West,281,0.0,4.0,91,0.01,,,0.02,0.0,WUHU216DAVISVP2,2014-01-16 09:11:00,
2014-01-16 03:16:00,32.5,30.2,29.43,West,274,1.0,4.0,91,0.01,,,0.02,0.0,WUHU216DAVISVP2,2014-01-16 09:16:00,
2014-01-16 03:21:00,32.5,30.2,29.43,West,273,0.0,3.0,91,0.01,,,0.02,0.0,WUHU216DAVISVP2,2014-01-16 09:21:00,
2014-01-16 03:26:00,32.4,30.1,29.43,NNW,330,0.0,3.0,91,0.01,,,0.02,0.0,WUHU216DAVISVP2,2014-01-16 09:26:00,
2014-01-16 03:31:00,32.4,30.3,29.43,West,260,0.0,2.0,92,0.01,,,0.02,0.0,WUHU216DAVISVP2,2014-01-16 09:31:00,
2014-01-16 03:36:00,32.4,30.3,29.42,NNE,15,1.0,2.0,92,0.01,,,0.02,0.0,WUHU216DAVISVP2,2014-01-16 09:36:00,
2014-01-16 03:41:00,32.4,30.3,29.42,NW,321,0.0,2.0,92,0.01,,,0.02,0.0,WUHU216DAVISVP2,2014-01-16 09:41:00,
2014-01-16 03:46:00,32.3,30.2,29.42,WNW,284,0.0,2.0,92,0.01,,,0.02,0.0,WUHU216DAVISVP2,2014-01-16 09:46:00,
2014-01-16 03:51:00,32.3,30.2,29.42,NNW,348,2.0,3.0,92,0.01,,,0.02,0.0,WUHU216DAVISVP2,2014-01-16 09:51:00,
2014-01-16 03:56:00,32.2,30.1,29.42,SW,219,0.0,3.0,92,0.00,,,0.02,0.0,WUHU216DAVISVP2,2014-01-16 09:56:00,
2014-01-16 04:01:00,32.2,30.1,29.42,NW,321,0.0,4.0,92,0.00,,,0.02,0.0,WUHU216DAVISVP2,2014-01-16 10:01:00,
2014-01-16 04:06:00,32.2,30.1,29.42,West,275,1.0,4.0,92,0.00,,,0.02,0.0,WUHU216DAVISVP2,2014-01-16 10:06:00,
2014-01-16 04:11:00,32.3,30.5,29.42,West,272,1.0,4.0,93,0.00,,,0.02,0.0,WUHU216DAVISVP2,2014-01-16 10:11:00,
2014-01-16 04:16:00,32.3,30.5,29.42,WSW,249,1.0,4.0,93,0.00,,,0.02,0.0,WUHU216DAVISVP2,2014-01-16 10:16:00,
2014-01-16 04:21:00,32.4,30.6,29.42,SW,223,1.0,4.0,93,0.00,,,0.02,0.0,WUHU216DAVISVP2,2014-01-16 10:21:00,
2014-01-16 04:26:00,32.4,30.6,29.41,South,173,0.0,3.0,93,0.00,,,0.02,0.0,WUHU216DAVISVP2,2014-01-16 10:26:00,
2014-01-16 04:31:00,32.4,30.6,29.42,WNW,287,2.0,3.0,93,0.00,,,0.02,0.0,WUHU216DAVISVP2,2014-01-16 10:31:00,
2014-01-16 04:36:00,32.5,30.7,29.41,NNW,338,1.0,3.0,93,0.00,,,0.02,0.0,WUHU216DAVISVP2,2014-01-16 10:36:00,
2014-01-16 04:41:00,32.6,30.8,29.41,NW,306,1.0,3.0,93,0.00,,,0.02,0.0,WUHU216DAVISVP2,2014-01-16 10:41:00,
2014-01-16 04:46:00,32.7,30.9,29.41,NW,319,0.0,3.0,93,0.00,,,0.02,0.0,WUHU216DAVISVP2,2014-01-16 10:46:00,
2014-01-16 04:51:00,32.7,31.1,29.41,WNW,282,1.0,4.0,94,0.00,,,0.02,0.0,WUHU216DAVISVP2,2014-01-16 10:51:00,
2014-01-16 04:56:00,32.8,31.2,29.41,West,263,1.0,4.0,94,0.00,,,0.02,0.0,WUHU216DAVISVP2,2014-01-16 10:56:00,
2014-01-16 05:01:00,32.8,31.2,29.41,NNW,346,0.0,4.0,94,0.00,,,0.02,0.0,WUHU216DAVISVP2,2014-01-16 11:01:00,
2014-01-16 05:06:00,32.8,31.2,29.41,WNW,296,0.0,4.0,94,0.00,,,0.02,0.0,WUHU216DAVISVP2,2014-01-16 11:06:00,
2014-01-16 05:11:00,32.9,31.3,29.42,NW,313,0.0,4.0,94,0.00,,,0.02,0.0,WUHU216DAVISVP2,2014-01-16 11:11:00,
2014-01-16 05:16:00,32.9,31.3,29.41,NW,317,0.0,2.0,94,0.00,,,0.02,0.0,WUHU216DAVISVP2,2014-01-16 11:16:00,
2014-01-16 05:21:00,32.9,31.3,29.41,WNW,293,1.0,2.0,94,0.00,,,0.02,0.0,WUHU216DAVISVP2,2014-01-16 11:21:00,
2014-01-16 05:26:00,33.0,31.4,29.42,WNW,284,1.0,4.0,94,0.00,,,0.02,0.0,WUHU216DAVISVP2,2014-01-16 11:26:00,
2014-01-16 05:31:00,33.0,31.4,29.42,NW,309,0.0,4.0,94,0.00,,,0.02,0.0,WUHU216DAVISVP2,2014-01-16 11:31:00,
2014-01-16 05:36:00,33.0,31.4,29.42,SW,235,0.0,4.0,94,0.00,,,0.02,0.0,WUHU216DAVISVP2,2014-01-16 11:36:00,
2014-01-16 05:41:00,33.0,31.4,29.42,West,265,2.0,4.0,94,0.00,,,0.02,0.0,WUHU216DAVISVP2,2014-01-16 11:41:00,
2014-01-16 05:46:00,33.0,31.4,29.42,NNW,333,0.0,4.0,94,0.00,,,0.02,0.0,WUHU216DAVISVP2,2014-01-16 11:46:00,
2014-01-16 05:51:00,33.0,31.4,29.42,NW,306,0.0,3.0,94,0.01,,,0.03,0.0,WUHU216DAVISVP2,2014-01-16 11:51:00,
2014-01-16 05:56:00,33.0,31.4,29.42,West,281,0.0,3.0,94,0.01,,,0.03,0.0,WUHU216DAVISVP2,2014-01-16 11:56:00,
2014-01-16 06:02:00,33.0,31.4,29.41,NW,313,0.0,3.0,94,0.01,,,0.03,0.0,WUHU216DAVISVP2,2014-01-16 12:02:00,
2014-01-16 06:07:00,33.0,31.4,29.41,WSW,237,1.0,3.0,94,0.01,,,0.03,0.0,WUHU216DAVISVP2,2014-01-16 12:07:00,
2014-01-16 06:12:00,33.0,31.4,29.41,SW,227,0.0,3.0,94,0.01,,,0.03,0.0,WUHU216DAVISVP2,2014-01-16 12:12:00,
2014-01-16 06:17:00,33.0,31.4,29.41,West,273,2.0,3.0,94,0.01,,,0.03,0.0,WUHU216DAVISVP2,2014-01-16 12:17:00,
2014-01-16 06:22:00,33.0,31.4,29.41,West,261,0.0,3.0,94,0.01,,,0.03,0.0,WUHU216DAVISVP2,2014-01-16 12:22:00,
2014-01-16 06:27:00,33.0,31.4,29.41,WSW,237,1.0,3.0,94,0.01,,,0.03,0.0,WUHU216DAVISVP2,2014-01-16 12:27:00,
2014-01-16 06:32:00,32.9,31.3,29.41,NW,320,0.0,3.0,94,0.01,,,0.03,0.0,WUHU216DAVISVP2,2014-01-16 12:32:00,
2014-01-16 06:37:00,32.9,31.3,29.41,NW,320,2.0,3.0,94,0.01,,,0.03,0.0,WUHU216DAVISVP2,2014-01-16 12:37:00,
2014-01-16 06:42:00,32.9,31.3,29.41,NNW,334,0.0,3.0,94,0.01,,,0.03,0.0,WUHU216DAVISVP2,2014-01-16 12:42:00,
2014-01-16 06:47:00,32.9,31.3,29.41,West,277,1.0,4.0,94,0.01,,,0.03,0.0,WUHU216DAVISVP2,2014-01-16 12:47:00,
2014-01-16 06:52:00,32.9,31.3,29.42,WNW,298,1.0,4.0,94,0.00,,,0.03,0.0,WUHU216DAVISVP2,2014-01-16 12:52:00,
2014-01-16 06:57:00,32.9,31.3,29.41,WNW,297,2.0,4.0,94,0.00,,,0.03,0.0,WUHU216DAVISVP2,2014-01-16 12:57:00,
2014-01-16 07:02:00,33.0,31.7,29.42,WNW,302,0.0,4.0,95,0.00,,,0.03,0.0,WUHU216DAVISVP2,2014-01-16 13:02:00,
2014-01-16 07:07:00,33.0,31.4,29.42,West,273,1.0,4.0,94,0.00,,,0.03,0.0,WUHU216DAVISVP2,2014-01-16 13:07:00,
2014-01-16 07:12:00,33.0,31.7,29.42,West,271,3.0,4.0,95,0.00,,,0.03,0.0,WUHU216DAVISVP2,2014-01-16 13:12:00,
2014-01-16 07:17:00,33.1,31.8,29.42,WNW,303,1.0,4.0,95,0.00,,,0.03,0.0,WUHU216DAVISVP2,2014-01-16 13:17:00,
2014-01-16 07:22:00,33.1,31.8,29.42,NW,306,1.0,4.0,95,0.00,,,0.03,0.0,WUHU216DAVISVP2,2014-01-16 13:22:00,
2014-01-16 07:27:00,33.2,31.9,29.42,SSE,159,3.0,4.0,95,0.00,,,0.03,0.0,WUHU216DAVISVP2,2014-01-16 13:27:00,
2014-01-16 07:32:00,33.2,31.9,29.42,WNW,302,1.0,4.0,95,0.00,,,0.03,0.0,WUHU216DAVISVP2,2014-01-16 13:32:00,
2014-01-16 07:37:00,33.2,31.9,29.42,WNW,302,2.0,4.0,95,0.00,,,0.03,0.0,WUHU216DAVISVP2,2014-01-16 13:37:00,
2014-01-16 07:42:00,33.3,32.0,29.42,WNW,284,2.0,8.0,95,0.00,,,0.03,0.0,WUHU216DAVISVP2,2014-01-16 13:42:00,
2014-01-16 07:47:00,33.3,32.0,29.43,NW,315,6.0,12.0,95,0.00,,,0.03,0.0,WUHU216DAVISVP2,2014-01-16 13:47:00,
2014-01-16 07:52:00,32.7,31.1,29.45,WNW,298,4.0,12.0,94,0.00,,,0.03,0.0,WUHU216DAVISVP2,2014-01-16 13:52:00,
2014-01-16 07:57:00,32.2,30.6,29.45,WNW,298,5.0,12.0,94,0.00,,,0.03,5.0,WUHU216DAVISVP2,2014-01-16 13:57:00,
2014-01-16 08:02:00,31.7,30.2,29.45,WNW,300,5.0,12.0,94,0.00,,,0.03,5.0,WUHU216DAVISVP2,2014-01-16 14:02:00,
2014-01-16 08:07:00,31.3,29.8,29.46,NW,311,6.0,8.0,94,0.00,,,0.03,11.0,WUHU216DAVISVP2,2014-01-16 14:07:00,
2014-01-16 08:12:00,30.6,28.8,29.46,WNW,301,7.0,11.0,93,0.00,,,0.03,18.0,WUHU216DAVISVP2,2014-01-16 14:12:00,
2014-01-16 08:17:00,29.9,27.8,29.47,West,270,7.0,11.0,92,0.00,,,0.03,23.0,WUHU216DAVISVP2,2014-01-16 14:17:00,
2014-01-16 08:22:00,29.4,27.3,29.48,NW,317,10.0,12.0,92,0.00,,,0.03,18.0,WUHU216DAVISVP2,2014-01-16 14:22:00,
2014-01-16 08:27:00,28.8,26.5,29.49,NW,311,6.0,12.0,91,0.00,,,0.03,19.0,WUHU216DAVISVP2,2014-01-16 14:27:00,
2014-01-16 08:32:00,28.0,25.1,29.49,NNW,338,3.0,13.0,89,0.00,,,0.03,37.0,WUHU216DAVISVP2,2014-01-16 14:32:00,
2014-01-16 08:37:00,27.5,24.1,29.50,NNW,341,8.0,13.0,87,0.00,,,0.03,53.0,WUHU216DAVISVP2,2014-01-16 14:37:00,
2014-01-16 08:42:00,27.1,23.2,29.51,WNW,292,6.0,16.0,85,0.00,,,0.03,62.0,WUHU216DAVISVP2,2014-01-16 14:42:00,
2014-01-16 08:47:00,26.9,22.1,29.51,WNW,292,5.0,16.0,82,0.00,,,0.03,54.0,WUHU216DAVISVP2,2014-01-16 14:47:00,
2014-01-16 08:52:00,26.7,21.7,29.52,WNW,296,4.0,16.0,81,0.00,,,0.03,42.0,WUHU216DAVISVP2,2014-01-16 14:52:00,
2014-01-16 08:57:00,26.6,21.3,29.52,NNW,331,4.0,16.0,80,0.00,,,0.03,44.0,WUHU216DAVISVP2,2014-01-16 14:57:00,
2014-01-16 09:02:00,26.4,20.8,29.53,West,277,7.0,15.0,79,0.00,,,0.03,46.0,WUHU216DAVISVP2,2014-01-16 15:02:00,
2014-01-16 09:07:00,25.8,19.6,29.54,NNW,330,7.0,15.0,77,0.00,,,0.03,39.0,WUHU216DAVISVP2,2014-01-16 15:07:00,
2014-01-16 09:12:00,25.3,18.8,29.55,NW,317,5.0,15.0,76,0.00,,,0.03,35.0,WUHU216DAVISVP2,2014-01-16 15:12:00,
2014-01-16 09:17:00,25.0,18.5,29.55,WNW,302,5.0,15.0,76,0.00,,,0.03,42.0,WUHU216DAVISVP2,2014-01-16 15:17:00,
2014-01-16 09:22:00,24.9,18.4,29.55,WNW,293,6.0,14.0,76,0.00,,,0.03,47.0,WUHU216DAVISVP2,2014-01-16 15:22:00,
2014-01-16 09:27:00,24.9,18.4,29.55,WNW,298,7.0,14.0,76,0.00,,,0.03,30.0,WUHU216DAVISVP2,2014-01-16 15:27:00,
2014-01-16 09:32:00,24.8,18.3,29.55,NW,312,8.0,10.0,76,0.00,,,0.03,30.0,WUHU216DAVISVP2,2014-01-16 15:32:00,
2014-01-16 09:37:00,24.8,18.6,29.55,West,267,5.0,10.0,77,0.00,,,0.03,46.0,WUHU216DAVISVP2,2014-01-16 15:37:00,
2014-01-16 09:42:00,24.8,18.9,29.55,NNW,342,6.0,10.0,78,0.00,,,0.03,40.0,WUHU216DAVISVP2,2014-01-16 15:42:00,
2014-01-16 09:47:00,24.8,18.6,29.56,WNW,300,5.0,14.0,77,0.00,,,0.03,65.0,WUHU216DAVISVP2,2014-01-16 15:47:00,
2014-01-16 09:52:00,24.4,17.0,29.56,WNW,303,7.0,14.0,73,0.00,,,0.03,93.0,WUHU216DAVISVP2,2014-01-16 15:52:00,
2014-01-16 09:57:00,24.0,16.0,29.56,West,281,5.0,14.0,71,0.00,,,0.03,95.0,WUHU216DAVISVP2,2014-01-16 15:57:00,
2014-01-16 10:02:00,23.9,15.6,29.57,NNW,345,5.0,14.0,70,0.00,,,0.03,197.0,WUHU216DAVISVP2,2014-01-16 16:02:00,
2014-01-16 10:07:00,23.8,14.8,29.57,WNW,294,13.0,13.0,68,0.00,,,0.03,95.0,WUHU216DAVISVP2,2014-01-16 16:07:00,
2014-01-16 10:12:00,23.4,14.1,29.58,WNW,302,8.0,13.0,67,0.00,,,0.03,95.0,WUHU216DAVISVP2,2014-01-16 16:12:00,
2014-01-16 10:17:00,22.9,13.2,29.57,WNW,288,4.0,13.0,66,0.00,,,0.03,241.0,WUHU216DAVISVP2,2014-01-16 16:17:00,
2014-01-16 10:22:00,22.8,13.5,29.57,WNW,298,5.0,13.0,67,0.00,,,0.03,79.0,WUHU216DAVISVP2,2014-01-16 16:22:00,
2014-01-16 10:27:00,22.7,13.7,29.57,WNW,301,3.0,12.0,68,0.00,,,0.03,265.0,WUHU216DAVISVP2,2014-01-16 16:27:00,
2014-01-16 10:32:00,22.8,14.1,29.58,WNW,292,5.0,11.0,69,0.00,,,0.03,186.0,WUHU216DAVISVP2,2014-01-16 16:32:00,
2014-01-16 10:37:00,22.7,13.4,29.57,NW,311,4.0,14.0,67,0.00,,,0.03,207.0,WUHU216DAVISVP2,2014-01-16 16:37:00,
2014-01-16 10:42:00,22.6,13.0,29.58,WNW,282,7.0,14.0,66,0.00,,,0.03,169.0,WUHU216DAVISVP2,2014-01-16 16:42:00,
2014-01-16 10:47:00,22.1,12.2,29.58,NW,304,10.0,14.0,65,0.00,,,0.03,181.0,WUHU216DAVISVP2,2014-01-16 16:47:00,
2014-01-16 10:52:00,21.5,11.2,29.58,WNW,300,6.0,15.0,64,0.00,,,0.03,192.0,WUHU216DAVISVP2,2014-01-16 16:52:00,
2014-01-16 10:57:00,21.1,10.9,29.58,NNW,327,4.0,15.0,64,0.00,,,0.03,183.0,WUHU216DAVISVP2,2014-01-16 16:57:00,
2014-01-16 11:02:00,20.8,10.2,29.57,NW,321,8.0,15.0,63,0.00,,,0.03,165.0,WUHU216DAVISVP2,2014-01-16 17:02:00,
2014-01-16 11:07:00,20.7,10.1,29.57,WNW,287,7.0,13.0,63,0.00,,,0.03,246.0,WUHU216DAVISVP2,2014-01-16 17:07:00,
2014-01-16 11:12:00,20.7,10.1,29.58,WNW,290,7.0,13.0,63,0.00,,,0.03,185.0,WUHU216DAVISVP2,2014-01-16 17:12:00,
2014-01-16 11:17:00,20.8,10.2,29.58,WNW,296,4.0,13.0,63,0.00,,,0.03,178.0,WUHU216DAVISVP2,2014-01-16 17:17:00,
2014-01-16 11:22:00,20.5,9.6,29.58,West,279,7.0,13.0,62,0.00,,,0.03,225.0,WUHU216DAVISVP2,2014-01-16 17:22:00,
2014-01-16 11:27:00,20.1,8.8,29.58,WNW,298,5.0,13.0,61,0.00,,,0.03,262.0,WUHU216DAVISVP2,2014-01-16 17:27:00,
2014-01-16 11:32:00,19.8,8.9,29.57,NW,314,5.0,13.0,62,0.00,,,0.03,171.0,WUHU216DAVISVP2,2014-01-16 17:32:00,
2014-01-16 11:37:00,19.5,8.6,29.58,WNW,287,8.0,13.0,62,0.00,,,0.03,176.0,WUHU216DAVISVP2,2014-01-16 17:37:00,
2014-01-16 11:42:00,19.3,8.4,29.57,WNW,290,5.0,13.0,62,0.00,,,0.03,183.0,WUHU216DAVISVP2,2014-01-16 17:42:00,
2014-01-16 11:47:00,19.5,8.9,29.58,WNW,292,5.0,13.0,63,0.00,,,0.03,193.0,WUHU216DAVISVP2,2014-01-16 17:47:00,
2014-01-16 11:52:00,19.6,9.1,29.58,WNW,288,5.0,12.0,63,0.00,,,0.03,137.0,WUHU216DAVISVP2,2014-01-16 17:52:00,
2014-01-16 11:57:00,19.5,9.0,29.58,WNW,299,9.0,12.0,63,0.00,,,0.03,169.0,WUHU216DAVISVP2,2014-01-16 17:57:00,
2014-01-16 12:02:00,19.1,7.9,29.58,West,271,9.0,12.0,61,0.00,,,0.03,229.0,WUHU216DAVISVP2,2014-01-16 18:02:00,
2014-01-16 12:07:00,18.8,7.6,29.59,WNW,288,6.0,13.0,61,0.00,,,0.03,230.0,WUHU216DAVISVP2,2014-01-16 18:07:00,
2014-01-16 12:12:00,18.6,7.4,29.58,West,281,6.0,13.0,61,0.00,,,0.03,142.0,WUHU216DAVISVP2,2014-01-16 18:12:00,
2014-01-16 12:17:00,18.5,7.3,29.59,WNW,283,4.0,13.0,61,0.00,,,0.03,158.0,WUHU216DAVISVP2,2014-01-16 18:17:00,
2014-01-16 12:22:00,18.2,7.0,29.59,NNW,343,7.0,11.0,61,0.00,,,0.03,158.0,WUHU216DAVISVP2,2014-01-16 18:22:00,
2014-01-16 12:27:00,17.9,7.1,29.60,WNW,300,7.0,11.0,62,0.00,,,0.03,179.0,WUHU216DAVISVP2,2014-01-16 18:27:00,
2014-01-16 12:32:00,17.6,6.5,29.60,WNW,298,4.0,11.0,61,0.00,,,0.03,176.0,WUHU216DAVISVP2,2014-01-16 18:32:00,
2014-01-16 12:37:00,17.4,6.6,29.60,NNW,327,4.0,11.0,62,0.00,,,0.03,162.0,WUHU216DAVISVP2,2014-01-16 18:37:00,
2014-01-16 12:42:00,17.0,6.3,29.60,NW,326,6.0,11.0,62,0.00,,,0.03,181.0,WUHU216DAVISVP2,2014-01-16 18:42:00,
2014-01-16 12:47:00,16.6,6.2,29.60,WNW,289,4.0,12.0,63,0.00,,,0.03,160.0,WUHU216DAVISVP2,2014-01-16 18:47:00,
2014-01-16 12:52:00,16.4,6.7,29.61,NNW,329,6.0,12.0,65,0.00,,,0.03,172.0,WUHU216DAVISVP2,2014-01-16 18:52:00,
2014-01-16 12:57:00,16.0,6.4,29.62,NNW,327,7.0,13.0,65,0.00,,,0.03,183.0,WUHU216DAVISVP2,2014-01-16 18:57:00,
2014-01-16 13:02:00,15.7,6.1,29.61,NW,304,5.0,13.0,65,0.00,,,0.03,162.0,WUHU216DAVISVP2,2014-01-16 19:02:00,
2014-01-16 13:07:00,15.1,5.8,29.62,WNW,284,5.0,13.0,66,0.00,,,0.03,146.0,WUHU216DAVISVP2,2014-01-16 19:07:00,
2014-01-16 13:12:00,14.5,5.6,29.63,West,277,7.0,13.0,67,0.00,,,0.03,155.0,WUHU216DAVISVP2,2014-01-16 19:12:00,
2014-01-16 13:17:00,14.0,5.1,29.63,WNW,300,4.0,12.0,67,0.00,,,0.03,162.0,WUHU216DAVISVP2,2014-01-16 19:17:00,
2014-01-16 13:22:00,13.7,5.1,29.63,WNW,298,6.0,11.0,68,0.00,,,0.03,149.0,WUHU216DAVISVP2,2014-01-16 19:22:00,
2014-01-16 13:27:00,13.4,4.9,29.63,NW,306,4.0,11.0,68,0.00,,,0.03,139.0,WUHU216DAVISVP2,2014-01-16 19:27:00,
2014-01-16 13:32:00,13.3,4.8,29.64,West,280,5.0,12.0,68,0.00,,,0.03,130.0,WUHU216DAVISVP2,2014-01-16 19:32:00,
2014-01-16 13:37:00,13.0,4.4,29.64,NW,315,5.0,12.0,68,0.00,,,0.03,137.0,WUHU216DAVISVP2,2014-01-16 19:37:00,
2014-01-16 13:42:00,13.0,4.8,29.64,WNW,284,3.0,12.0,69,0.00,,,0.03,151.0,WUHU216DAVISVP2,2014-01-16 19:42:00,
2014-01-16 13:47:00,13.0,4.8,29.65,NW,325,6.0,12.0,69,0.00,,,0.03,153.0,WUHU216DAVISVP2,2014-01-16 19:47:00,
2014-01-16 13:52:00,12.9,4.3,29.65,WNW,296,8.0,13.0,68,0.00,,,0.03,142.0,WUHU216DAVISVP2,2014-01-16 19:52:00,
2014-01-16 13:57:00,12.8,4.3,29.65,WNW,300,5.0,13.0,68,0.00,,,0.03,141.0,WUHU216DAVISVP2,2014-01-16 19:57:00,
2014-01-16 14:02:00,12.6,4.1,29.66,WNW,296,8.0,13.0,68,0.00,,,0.03,130.0,WUHU216DAVISVP2,2014-01-16 20:02:00,
2014-01-16 14:07:00,12.5,4.0,29.66,NW,314,3.0,13.0,68,0.00,,,0.03,123.0,WUHU216DAVISVP2,2014-01-16 20:07:00,
2014-01-16 14:12:00,12.6,4.4,29.66,NW,311,3.0,11.0,69,0.00,,,0.03,114.0,WUHU216DAVISVP2,2014-01-16 20:12:00,
2014-01-16 14:17:00,12.7,4.5,29.67,WNW,289,5.0,11.0,69,0.00,,,0.03,104.0,WUHU216DAVISVP2,2014-01-16 20:17:00,
2014-01-16 14:22:00,12.6,4.4,29.67,NW,313,7.0,10.0,69,0.00,,,0.03,111.0,WUHU216DAVISVP2,2014-01-16 20:22:00,
2014-01-16 14:27:00,12.3,4.1,29.67,WNW,294,8.0,10.0,69,0.00,,,0.03,100.0,WUHU216DAVISVP2,2014-01-16 20:27:00,
2014-01-16 14:32:00,12.1,3.9,29.68,WNW,298,3.0,10.0,69,0.00,,,0.03,97.0,WUHU216DAVISVP2,2014-01-16 20:32:00,
2014-01-16 14:37:00,11.9,3.7,29.68,NW,309,8.0,10.0,69,0.00,,,0.03,97.0,WUHU216DAVISVP2,2014-01-16 20:37:00,
2014-01-16 14:42:00,11.8,3.9,29.69,NW,325,5.0,12.0,70,0.00,,,0.03,83.0,WUHU216DAVISVP2,2014-01-16 20:42:00,
2014-01-16 14:47:00,11.6,3.4,29.69,WNW,294,6.0,12.0,69,0.00,,,0.03,83.0,WUHU216DAVISVP2,2014-01-16 20:47:00,
2014-01-16 14:52:00,11.3,3.2,29.70,WNW,286,4.0,12.0,69,0.00,,,0.03,81.0,WUHU216DAVISVP2,2014-01-16 20:52:00,
2014-01-16 14:57:00,11.2,3.1,29.70,NW,305,4.0,12.0,69,0.00,,,0.03,77.0,WUHU216DAVISVP2,2014-01-16 20:57:00,
2014-01-16 15:02:00,11.1,3.3,29.70,WNW,294,5.0,11.0,70,0.00,,,0.03,74.0,WUHU216DAVISVP2,2014-01-16 21:02:00,
2014-01-16 15:07:00,11.1,3.3,29.71,West,273,4.0,11.0,70,0.00,,,0.03,67.0,WUHU216DAVISVP2,2014-01-16 21:07:00,
2014-01-16 15:12:00,11.0,3.2,29.71,NW,325,6.0,11.0,70,0.00,,,0.03,69.0,WUHU216DAVISVP2,2014-01-16 21:12:00,
2014-01-16 15:17:00,10.8,2.7,29.71,WNW,298,5.0,11.0,69,0.00,,,0.03,69.0,WUHU216DAVISVP2,2014-01-16 21:17:00,
2014-01-16 15:22:00,10.7,2.8,29.71,NW,312,7.0,11.0,70,0.00,,,0.03,65.0,WUHU216DAVISVP2,2014-01-16 21:22:00,
2014-01-16 15:27:00,10.6,2.8,29.72,NW,317,5.0,11.0,70,0.00,,,0.03,60.0,WUHU216DAVISVP2,2014-01-16 21:27:00,
2014-01-16 15:32:00,10.5,2.7,29.73,WNW,290,5.0,10.0,70,0.00,,,0.03,56.0,WUHU216DAVISVP2,2014-01-16 21:32:00,
2014-01-16 15:37:00,10.4,2.5,29.73,West,278,7.0,10.0,70,0.00,,,0.03,51.0,WUHU216DAVISVP2,2014-01-16 21:37:00,
2014-01-16 15:42:00,10.3,2.5,29.73,West,275,6.0,10.0,70,0.00,,,0.03,46.0,WUHU216DAVISVP2,2014-01-16 21:42:00,
2014-01-16 15:47:00,10.3,2.4,29.74,WNW,285,4.0,9.0,70,0.00,,,0.03,44.0,WUHU216DAVISVP2,2014-01-16 21:47:00,
2014-01-16 15:52:00,10.2,2.4,29.74,NW,318,3.0,9.0,70,0.00,,,0.03,40.0,WUHU216DAVISVP2,2014-01-16 21:52:00,
2014-01-16 15:57:00,10.2,2.4,29.75,WNW,292,5.0,9.0,70,0.00,,,0.03,37.0,WUHU216DAVISVP2,2014-01-16 21:57:00,
2014-01-16 16:02:00,10.1,2.0,29.75,WNW,283,3.0,9.0,69,0.00,,,0.03,37.0,WUHU216DAVISVP2,2014-01-16 22:02:00,
2014-01-16 16:07:00,10.1,2.0,29.75,NW,325,6.0,9.0,69,0.00,,,0.03,32.0,WUHU216DAVISVP2,2014-01-16 22:07:00,
2014-01-16 16:12:00,10.0,1.5,29.75,WNW,283,4.0,9.0,68,0.00,,,0.03,32.0,WUHU216DAVISVP2,2014-01-16 22:12:00,
2014-01-16 16:17:00,10.0,1.3,29.76,NW,305,4.0,9.0,67,0.00,,,0.03,26.0,WUHU216DAVISVP2,2014-01-16 22:17:00,
2014-01-16 16:22:00,9.9,1.2,29.77,NW,306,3.0,9.0,67,0.00,,,0.03,23.0,WUHU216DAVISVP2,2014-01-16 22:22:00,
2014-01-16 16:27:00,9.8,1.1,29.77,WNW,284,3.0,11.0,67,0.00,,,0.03,23.0,WUHU216DAVISVP2,2014-01-16 22:27:00,
2014-01-16 16:32:00,9.7,1.0,29.77,NNW,343,6.0,11.0,67,0.00,,,0.03,19.0,WUHU216DAVISVP2,2014-01-16 22:32:00,
2014-01-16 16:37:00,9.7,1.3,29.78,WNW,303,3.0,11.0,68,0.00,,,0.03,14.0,WUHU216DAVISVP2,2014-01-16 22:37:00,
2014-01-16 16:42:00,9.5,1.1,29.78,WNW,298,5.0,9.0,68,0.00,,,0.03,12.0,WUHU216DAVISVP2,2014-01-16 22:42:00,
2014-01-16 16:47:00,9.4,1.6,29.78,WNW,294,4.0,8.0,70,0.00,,,0.03,9.0,WUHU216DAVISVP2,2014-01-16 22:47:00,
2014-01-16 16:53:00,9.3,1.8,29.79,NW,305,2.0,8.0,71,0.00,,,0.03,5.0,WUHU216DAVISVP2,2014-01-16 22:53:00,
2014-01-16 16:58:00,9.1,1.9,29.79,NW,308,4.0,8.0,72,0.00,,,0.03,0.0,WUHU216DAVISVP2,2014-01-16 22:58:00,
2014-01-16 17:03:00,9.0,1.8,29.80,West,271,3.0,9.0,72,0.00,,,0.03,0.0,WUHU216DAVISVP2,2014-01-16 23:03:00,
2014-01-16 17:08:00,8.9,2.0,29.80,NW,307,3.0,9.0,73,0.00,,,0.03,0.0,WUHU216DAVISVP2,2014-01-16 23:08:00,
2014-01-16 17:13:00,8.8,1.9,29.80,NNW,334,5.0,10.0,73,0.00,,,0.03,0.0,WUHU216DAVISVP2,2014-01-16 23:13:00,
2014-01-16 17:18:00,8.8,1.4,29.81,NNW,329,7.0,10.0,71,0.00,,,0.03,0.0,WUHU216DAVISVP2,2014-01-16 23:18:00,
2014-01-16 17:23:00,8.7,1.0,29.81,NNW,347,4.0,10.0,70,0.00,,,0.03,0.0,WUHU216DAVISVP2,2014-01-16 23:23:00,
2014-01-16 17:28:00,8.7,1.0,29.81,WNW,291,5.0,10.0,70,0.00,,,0.03,0.0,WUHU216DAVISVP2,2014-01-16 23:28:00,
2014-01-16 17:33:00,8.6,0.6,29.81,NW,313,3.0,9.0,69,0.00,,,0.03,0.0,WUHU216DAVISVP2,2014-01-16 23:33:00,
2014-01-16 17:38:00,8.6,0.9,29.81,NW,322,5.0,9.0,70,0.00,,,0.03,0.0,WUHU216DAVISVP2,2014-01-16 23:38:00,
2014-01-16 17:43:00,8.5,0.8,29.82,West,281,4.0,8.0,70,0.00,,,0.03,0.0,WUHU216DAVISVP2,2014-01-16 23:43:00,
2014-01-16 17:48:00,8.5,0.8,29.82,NW,314,4.0,8.0,70,0.00,,,0.03,0.0,WUHU216DAVISVP2,2014-01-16 23:48:00,
2014-01-16 17:53:00,8.4,0.6,29.82,NW,311,2.0,8.0,70,0.00,,,0.03,0.0,WUHU216DAVISVP2,2014-01-16 23:53:00,
2014-01-16 17:58:00,8.4,0.7,29.83,NW,304,4.0,8.0,70,0.00,,,0.03,0.0,WUHU216DAVISVP2,2014-01-16 23:58:00,
2014-01-16 18:03:00,8.3,0.6,29.83,NW,306,4.0,8.0,70,0.00,,,0.03,0.0,WUHU216DAVISVP2,2014-01-17 00:03:00,
2014-01-16 18:08:00,8.2,0.5,29.83,WNW,296,5.0,8.0,70,0.00,,,0.03,0.0,WUHU216DAVISVP2,2014-01-17 00:08:00,
2014-01-16 18:13:00,8.0,0.6,29.83,WNW,298,6.0,8.0,71,0.00,,,0.03,0.0,WUHU216DAVISVP2,2014-01-17 00:13:00,
2014-01-16 18:18:00,7.9,0.5,29.84,NW,311,5.0,8.0,71,0.00,,,0.03,0.0,WUHU216DAVISVP2,2014-01-17 00:18:00,
2014-01-16 18:23:00,7.8,0.4,29.84,West,277,5.0,9.0,71,0.00,,,0.03,0.0,WUHU216DAVISVP2,2014-01-17 00:23:00,
2014-01-16 18:28:00,7.8,0.4,29.84,WNW,292,3.0,10.0,71,0.00,,,0.03,0.0,WUHU216DAVISVP2,2014-01-17 00:28:00,
2014-01-16 18:33:00,7.8,0.4,29.84,NW,306,4.0,10.0,71,0.00,,,0.03,0.0,WUHU216DAVISVP2,2014-01-17 00:33:00,
2014-01-16 18:37:00,7.8,0.4,29.84,NW,315,4.0,10.0,71,0.00,,,0.03,0.0,WUHU216DAVISVP2,2014-01-17 00:37:00,
2014-01-16 18:42:00,7.8,0.3,29.85,NW,312,6.0,10.0,71,0.00,,,0.03,0.0,WUHU216DAVISVP2,2014-01-17 00:42:00,
2014-01-16 18:47:00,7.9,0.2,29.85,NW,311,5.0,10.0,70,0.00,,,0.03,0.0,WUHU216DAVISVP2,2014-01-17 00:47:00,
2014-01-16 18:52:00,8.0,0.3,29.85,WNW,300,6.0,10.0,70,0.00,,,0.03,0.0,WUHU216DAVISVP2,2014-01-17 00:52:00,
2014-01-16 18:57:00,8.0,0.3,29.85,NW,324,3.0,10.0,70,0.00,,,0.03,0.0,WUHU216DAVISVP2,2014-01-17 00:57:00,
2014-01-16 19:02:00,8.1,0.4,29.85,West,281,3.0,10.0,70,0.00,,,0.03,0.0,WUHU216DAVISVP2,2014-01-17 01:02:00,
2014-01-16 19:07:00,8.1,0.7,29.85,West,281,3.0,10.0,71,0.00,,,0.03,0.0,WUHU216DAVISVP2,2014-01-17 01:07:00,
2014-01-16 19:12:00,8.0,0.6,29.85,West,275,8.0,8.0,71,0.00,,,0.03,0.0,WUHU216DAVISVP2,2014-01-17 01:12:00,
2014-01-16 19:17:00,7.9,0.5,29.86,WNW,288,7.0,9.0,71,0.00,,,0.03,0.0,WUHU216DAVISVP2,2014-01-17 01:17:00,
2014-01-16 19:22:00,7.8,0.7,29.85,NW,309,7.0,9.0,72,0.00,,,0.03,0.0,WUHU216DAVISVP2,2014-01-17 01:22:00,
2014-01-16 19:27:00,7.7,0.6,29.86,NW,319,3.0,9.0,72,0.00,,,0.03,0.0,WUHU216DAVISVP2,2014-01-17 01:27:00,
2014-01-16 19:32:00,7.7,0.5,29.86,WNW,292,5.0,8.0,72,0.00,,,0.03,0.0,WUHU216DAVISVP2,2014-01-17 01:32:00,
2014-01-16 19:37:00,7.7,0.8,29.86,West,281,6.0,8.0,73,0.00,,,0.03,0.0,WUHU216DAVISVP2,2014-01-17 01:37:00,
2014-01-16 19:42:00,7.6,0.7,29.86,NW,317,3.0,8.0,73,0.00,,,0.03,0.0,WUHU216DAVISVP2,2014-01-17 01:42:00,
2014-01-16 19:47:00,7.6,0.8,29.87,NNE,29,2.0,8.0,73,0.00,,,0.03,0.0,WUHU216DAVISVP2,2014-01-17 01:47:00,
2014-01-16 19:52:00,7.5,0.7,29.87,WNW,294,5.0,8.0,73,0.00,,,0.03,0.0,WUHU216DAVISVP2,2014-01-17 01:52:00,
2014-01-16 19:57:00,7.5,0.7,29.87,WNW,296,3.0,8.0,73,0.00,,,0.03,0.0,WUHU216DAVISVP2,2014-01-17 01:57:00,
2014-01-16 20:02:00,7.4,0.6,29.87,NW,321,3.0,9.0,73,0.00,,,0.03,0.0,WUHU216DAVISVP2,2014-01-17 02:02:00,
2014-01-16 20:07:00,7.4,0.9,29.87,WNW,284,5.0,9.0,74,0.00,,,0.03,0.0,WUHU216DAVISVP2,2014-01-17 02:07:00,
2014-01-16 20:12:00,7.4,0.9,29.87,West,277,5.0,9.0,74,0.00,,,0.03,0.0,WUHU216DAVISVP2,2014-01-17 02:12:00,
2014-01-16 20:17:00,7.4,0.6,29.87,WNW,298,4.0,10.0,73,0.00,,,0.03,0.0,WUHU216DAVISVP2,2014-01-17 02:17:00,
2014-01-16 20:22:00,7.4,0.9,29.87,WNW,296,5.0,10.0,74,0.00,,,0.03,0.0,WUHU216DAVISVP2,2014-01-17 02:22:00,
2014-01-16 20:27:00,7.3,0.8,29.87,WNW,298,3.0,10.0,74,0.00,,,0.03,0.0,WUHU216DAVISVP2,2014-01-17 02:27:00,
2014-01-16 20:32:00,7.2,0.7,29.88,NW,309,4.0,9.0,74,0.00,,,0.03,0.0,WUHU216DAVISVP2,2014-01-17 02:32:00,
2014-01-16 20:37:00,7.2,0.7,29.88,WNW,298,2.0,9.0,74,0.00,,,0.03,0.0,WUHU216DAVISVP2,2014-01-17 02:37:00,
2014-01-16 20:42:00,7.1,0.6,29.88,WNW,288,3.0,8.0,74,0.00,,,0.03,0.0,WUHU216DAVISVP2,2014-01-17 02:42:00,
2014-01-16 20:47:00,7.1,0.6,29.88,NW,313,6.0,8.0,74,0.00,,,0.03,0.0,WUHU216DAVISVP2,2014-01-17 02:47:00,
2014-01-16 20:52:00,7.1,0.6,29.89,NW,319,5.0,8.0,74,0.00,,,0.03,0.0,WUHU216DAVISVP2,2014-01-17 02:52:00,
2014-01-16 20:57:00,7.1,0.6,29.88,WNW,293,3.0,8.0,74,0.00,,,0.03,0.0,WUHU216DAVISVP2,2014-01-17 02:57:00,
2014-01-16 21:02:00,7.1,0.6,29.88,NW,323,3.0,8.0,74,0.00,,,0.03,0.0,WUHU216DAVISVP2,2014-01-17 03:02:00,
2014-01-16 21:07:00,7.2,0.7,29.89,NNW,338,4.0,8.0,74,0.00,,,0.03,0.0,WUHU216DAVISVP2,2014-01-17 03:07:00,
2014-01-16 21:12:00,7.1,0.6,29.88,WNW,291,4.0,8.0,74,0.00,,,0.03,0.0,WUHU216DAVISVP2,2014-01-17 03:12:00,
2014-01-16 21:17:00,7.1,0.6,29.89,WNW,294,4.0,8.0,74,0.00,,,0.03,0.0,WUHU216DAVISVP2,2014-01-17 03:17:00,
2014-01-16 21:22:00,7.2,0.7,29.89,WNW,299,4.0,8.0,74,0.00,,,0.03,0.0,WUHU216DAVISVP2,2014-01-17 03:22:00,
2014-01-16 21:27:00,7.2,0.7,29.89,WNW,302,4.0,8.0,74,0.00,,,0.03,0.0,WUHU216DAVISVP2,2014-01-17 03:27:00,
2014-01-16 21:32:00,7.3,0.7,29.89,WNW,285,4.0,9.0,74,0.00,,,0.03,0.0,WUHU216DAVISVP2,2014-01-17 03:32:00,
2014-01-16 21:37:00,7.3,0.7,29.89,WNW,286,4.0,9.0,74,0.00,,,0.03,0.0,WUHU216DAVISVP2,2014-01-17 03:37:00,
2014-01-16 21:42:00,7.4,0.8,29.90,NNW,328,4.0,9.0,74,0.00,,,0.03,0.0,WUHU216DAVISVP2,2014-01-17 03:42:00,
2014-01-16 21:47:00,7.4,0.8,29.90,NW,313,4.0,10.0,74,0.00,,,0.03,0.0,WUHU216DAVISVP2,2014-01-17 03:47:00,
2014-01-16 21:52:00,7.4,0.8,29.90,WNW,292,4.0,10.0,74,0.00,,,0.03,0.0,WUHU216DAVISVP2,2014-01-17 03:52:00,
2014-01-16 21:57:00,7.4,0.8,29.90,NW,311,3.0,10.0,74,0.00,,,0.03,0.0,WUHU216DAVISVP2,2014-01-17 03:57:00,
2014-01-16 22:02:00,7.4,0.9,29.90,WNW,290,6.0,10.0,74,0.00,,,0.03,0.0,WUHU216DAVISVP2,2014-01-17 04:02:00,
2014-01-16 22:07:00,7.4,0.9,29.90,WNW,285,5.0,9.0,74,0.00,,,0.03,0.0,WUHU216DAVISVP2,2014-01-17 04:07:00,
2014-01-16 22:12:00,7.4,0.9,29.90,NNW,327,4.0,9.0,74,0.00,,,0.03,0.0,WUHU216DAVISVP2,2014-01-17 04:12:00,
2014-01-16 22:17:00,7.4,0.8,29.90,NW,315,3.0,8.0,74,0.00,,,0.03,0.0,WUHU216DAVISVP2,2014-01-17 04:17:00,
2014-01-16 22:22:00,7.4,0.9,29.90,WNW,297,4.0,8.0,74,0.00,,,0.03,0.0,WUHU216DAVISVP2,2014-01-17 04:22:00,
2014-01-16 22:27:00,7.4,1.1,29.90,NW,312,4.0,8.0,75,0.00,,,0.03,0.0,WUHU216DAVISVP2,2014-01-17 04:27:00,
2014-01-16 22:32:00,7.4,1.2,29.91,NW,305,2.0,7.0,75,0.00,,,0.03,0.0,WUHU216DAVISVP2,2014-01-17 04:32:00,
2014-01-16 22:37:00,7.4,1.2,29.90,WNW,293,3.0,7.0,75,0.00,,,0.03,0.0,WUHU216DAVISVP2,2014-01-17 04:37:00,
2014-01-16 22:43:00,7.4,1.2,29.91,WNW,292,4.0,7.0,75,0.00,,,0.03,0.0,WUHU216DAVISVP2,2014-01-17 04:43:00,
2014-01-16 22:48:00,7.4,1.2,29.91,WNW,291,4.0,7.0,75,0.00,,,0.03,0.0,WUHU216DAVISVP2,2014-01-17 04:48:00,
2014-01-16 22:53:00,7.4,1.2,29.91,WNW,296,4.0,9.0,75,0.00,,,0.03,0.0,WUHU216DAVISVP2,2014-01-17 04:53:00,
2014-01-16 22:58:00,7.5,1.2,29.91,NW,305,4.0,9.0,75,0.00,,,0.03,0.0,WUHU216DAVISVP2,2014-01-17 04:58:00,
2014-01-16 23:01:00,7.5,1.2,29.91,WNW,303,5.0,9.0,75,0.00,,,0.03,0.0,WUHU216DAVISVP2,2014-01-17 05:01:00,
2014-01-16 23:06:00,7.6,1.6,29.91,WNW,285,4.0,9.0,76,0.00,,,0.03,0.0,WUHU216DAVISVP2,2014-01-17 05:06:00,
2014-01-16 23:11:00,7.6,1.6,29.91,West,281,4.0,8.0,76,0.00,,,0.03,0.0,WUHU216DAVISVP2,2014-01-17 05:11:00,
2014-01-16 23:16:00,7.6,1.6,29.91,West,279,6.0,7.0,76,0.00,,,0.03,0.0,WUHU216DAVISVP2,2014-01-17 05:16:00,
2014-01-16 23:21:00,7.6,1.6,29.91,NW,322,5.0,8.0,76,0.00,,,0.03,0.0,WUHU216DAVISVP2,2014-01-17 05:21:00,
2014-01-16 23:26:00,7.6,1.6,29.91,NNW,328,3.0,8.0,76,0.00,,,0.03,0.0,WUHU216DAVISVP2,2014-01-17 05:26:00,
2014-01-16 23:31:00,7.7,1.7,29.92,NW,319,2.0,8.0,76,0.00,,,0.03,0.0,WUHU216DAVISVP2,2014-01-17 05:31:00,
2014-01-16 23:37:00,7.7,1.7,29.92,NW,306,4.0,8.0,76,0.00,,,0.03,0.0,WUHU216DAVISVP2,2014-01-17 05:37:00,
2014-01-16 23:42:00,7.8,1.8,29.92,WNW,296,4.0,8.0,76,0.00,,,0.03,0.0,WUHU216DAVISVP2,2014-01-17 05:42:00,
2014-01-16 23:47:00,7.8,1.8,29.92,NNW,335,6.0,8.0,76,0.00,,,0.03,0.0,WUHU216DAVISVP2,2014-01-17 05:47:00,
2014-01-16 23:52:00,7.9,2.2,29.92,WNW,294,6.0,10.0,77,0.00,,,0.03,0.0,WUHU216DAVISVP2,2014-01-17 05:52:00,
2014-01-16 23:57:00,7.9,1.9,29.92,WNW,300,3.0,10.0,76,0.00,,,0.03,0.0,WUHU216DAVISVP2,2014-01-17 05:57:00,